This is the latest recevied weather packets stored in our database for station/object DG9VH-13. If no packets are shown the sender has not sent any weather packets the latest 10 day(s).
| Time | Temp. | Humidity | Pressure | Rain* | Wind** | Luminosity | Snow |
|---|---|---|---|---|---|---|---|
| 1777197604 | 17.22° C | 37% | 1006.1 hPa | - | - | - | - |
| 1777197001 | 16.67° C | 35% | 1006.2 hPa | - | - | - | - |
| 1777196401 | 16.67° C | 37% | 1006.2 hPa | - | - | - | - |
| 1777195805 | 16.67° C | 38% | 1006.3 hPa | - | - | - | - |
| 1777195201 | 16.11° C | 38% | 1006.4 hPa | - | - | - | - |
| 1777194601 | 16.11° C | 39% | 1006.5 hPa | - | - | - | - |
| 1777194002 | 15.56° C | 39% | 1006.4 hPa | - | - | - | - |
| 1777193406 | 15.56° C | 39% | 1006.4 hPa | - | - | - | - |
| 1777192801 | 15.56° C | 41% | 1006.4 hPa | - | - | - | - |
| 1777192204 | 15° C | 41% | 1006.3 hPa | - | - | - | - |
| 1777191604 | 14.44° C | 42% | 1006.5 hPa | - | - | - | - |
| 1777191005 | 14.44° C | 45% | 1006.3 hPa | - | - | - | - |
| 1777190401 | 13.89° C | 45% | 1006.5 hPa | - | - | - | - |
| 1777189805 | 13.89° C | 46% | 1006.5 hPa | - | - | - | - |
| 1777189204 | 13.33° C | 48% | 1006.5 hPa | - | - | - | - |
| 1777188604 | 13.33° C | 48% | 1006.6 hPa | - | - | - | - |
| 1777188004 | 12.78° C | 49% | 1006.6 hPa | - | - | - | - |
| 1777187401 | 12.78° C | 49% | 1006.6 hPa | - | - | - | - |
| 1777186801 | 12.22° C | 50% | 1006.6 hPa | - | - | - | - |
| 1777186201 | 11.67° C | 51% | 1006.7 hPa | - | - | - | - |
| 1777185601 | 11.67° C | 52% | 1006.6 hPa | - | - | - | - |
| 1777185004 | 11.11° C | 53% | 1006.6 hPa | - | - | - | - |
| 1777184404 | 10.56° C | 53% | 1006.6 hPa | - | - | - | - |
| 1777183801 | 10.56° C | 54% | 1006.6 hPa | - | - | - | - |
| 1777183204 | 10° C | 56% | 1006.5 hPa | - | - | - | - |
* Rain since midnight (hover to see other rain measurements)
** Current wind speed in m/s (hover to see current wind gust speed)